CW5193 New Chelsea NF CA current weather conditions

sailwx.info

Wind from 206 at 11 knots gusting 18

Air temperature 26.1° C
Dewpoint 23.0° C

Last reported at 2014-Jul-30 12:42 UTC.
Time now 2014-Jul-30 13:14 UTC

Location: N 48°02' W 053°13'.
View on Google Maps.

See reports from other nearby stations

  
Tides and Currents Weather Stations Pressure Air Temp Water Temp Dewpoint Dewpoint Depression Visibility Wind Speed Wind Dir Waves Ship Positions
date/time (UTC)wind fromknots sea level pressurealtimeterstation pressurevisibilityair tempwater tempwave heightnotes
2014-Jul-30 12:42 206 11 gusting 18 26.1
2014-Jul-30 12:32 227 8 gusting 19 26.1
2014-Jul-30 12:22 271 10 gusting 18 26.1
2014-Jul-30 12:12 234 10 gusting 16 26.1
2014-Jul-30 12:02 227 12 gusting 18 26.1
2014-Jul-30 11:52 265 10 gusting 14 26.1
2014-Jul-30 11:42 217 9 gusting 15 25.6
2014-Jul-30 11:32 233 9 gusting 13 25.0
2014-Jul-30 11:22 257 12 gusting 17 24.4
2014-Jul-30 11:12 235 6 gusting 13 24.4
2014-Jul-30 11:02 234 6 gusting 15 24.4
2014-Jul-30 10:52 277 6 gusting 17 25.0
2014-Jul-30 10:42 212 6 gusting 14 25.0
2014-Jul-30 10:32 220 7 gusting 15 25.0
2014-Jul-30 10:22 216 3 gusting 11 25.0
2014-Jul-30 10:12 217 4 gusting 13 24.4
2014-Jul-30 10:02 223 7 gusting 12 24.4
2014-Jul-30 09:52 238 4 gusting 11 23.9
2014-Jul-30 09:42 218 5 gusting 9 23.9
2014-Jul-30 09:32 229 4 gusting 8 23.9
2014-Jul-30 09:22 232 3 gusting 10 23.3
2014-Jul-30 09:12 253 2 gusting 7 23.3
2014-Jul-30 09:02 244 4 gusting 6 23.3
2014-Jul-30 08:52 229 2 gusting 9 23.3
2014-Jul-30 08:42 249 2 gusting 6 23.3
2014-Jul-30 08:32 248 2 gusting 7 23.3
2014-Jul-30 08:22 230 2 gusting 8 23.3
2014-Jul-30 08:12 265 2 gusting 13 23.3
2014-Jul-30 08:02 209 3 gusting 8 23.3
2014-Jul-30 07:52 249 3 gusting 7 23.3
2014-Jul-30 07:42 248 2 gusting 6 23.3
2014-Jul-30 07:32 244 3 gusting 6 22.8
2014-Jul-30 07:22 231 2 gusting 6 22.8
2014-Jul-30 07:12 250 3 gusting 6 21.7
2014-Jul-30 07:02 250 20.6
2014-Jul-30 06:52 250 20.6
2014-Jul-30 06:42 249 20.6
2014-Jul-30 06:32 250 21.7
2014-Jul-30 06:22 250 22.8
2014-Jul-30 06:12 249 22.8
2014-Jul-30 06:02 250 1 gusting 7 23.3
2014-Jul-30 05:52 239 6 gusting 8 23.3
2014-Jul-30 05:42 207 5 gusting 9 23.3
2014-Jul-30 05:32 223 4 gusting 10 23.3
2014-Jul-30 05:22 221 5 gusting 10 23.3
2014-Jul-30 05:12 229 8 gusting 13 23.3
2014-Jul-30 05:02 209 5 gusting 12 23.3
2014-Jul-30 04:52 228 6 gusting 11 23.3
2014-Jul-30 04:42 207 7 gusting 14 23.3
2014-Jul-30 04:32 206 9 gusting 13 23.3
2014-Jul-30 04:22 232 8 gusting 12 23.3
2014-Jul-30 04:12 221 6 gusting 12 23.3
2014-Jul-30 04:02 227 6 gusting 10 23.3
2014-Jul-30 03:52 231 6 gusting 12 23.3
2014-Jul-30 03:42 213 6 gusting 13 23.3
2014-Jul-30 03:32 213 6 gusting 12 23.3
2014-Jul-30 03:22 221 1 gusting 8 23.3
2014-Jul-30 03:12 236 0 gusting 10 23.3
2014-Jul-30 03:02 231 3 gusting 11 23.3
2014-Jul-30 02:52 241 4 gusting 12 23.3
2014-Jul-30 02:42 221 3 gusting 9 23.3
2014-Jul-30 02:32 204 1 gusting 10 23.3
2014-Jul-30 02:22 203 0 gusting 10 23.3
2014-Jul-30 02:12 198 1 gusting 5 23.3
2014-Jul-30 02:02 197 0 gusting 3 22.8
2014-Jul-30 01:52 197 22.2
2014-Jul-30 01:42 196 22.2
2014-Jul-30 01:32 197 2 gusting 4 22.2
2014-Jul-30 01:22 196 21.7
2014-Jul-30 01:12 196 21.7
2014-Jul-30 01:02 196 21.7
2014-Jul-30 00:52 196 22.2
2014-Jul-30 00:42 197 22.2
2014-Jul-30 00:32 197 22.2
2014-Jul-30 00:22 197 22.2
2014-Jul-30 00:12 197 22.2
2014-Jul-30 00:02 197 22.2
2014-Jul-29 23:52 197 22.2
2014-Jul-29 23:42 196 22.2
2014-Jul-29 23:32 197 21.7
2014-Jul-29 23:22 196 1 gusting 3 21.7
2014-Jul-29 23:12 197 1 gusting 4 22.8
2014-Jul-29 23:02 197 23.3
2014-Jul-29 22:52 196 0 gusting 3 23.3
2014-Jul-29 22:42 196 2 gusting 10 23.9
2014-Jul-29 22:32 200 5 gusting 10 23.9
2014-Jul-29 22:22 192 3 gusting 12 23.9
2014-Jul-29 22:12 182 7 gusting 13 23.9
2014-Jul-29 22:02 169 1 gusting 5 22.2
2014-Jul-29 21:52 036 21.7
2014-Jul-29 21:42 036 3 gusting 6 21.1
2014-Jul-29 21:32 084 5 gusting 8 21.1
2014-Jul-29 21:22 229 24.4
2014-Jul-29 21:12 201 2 gusting 13 25.0
2014-Jul-29 21:02 198 6 gusting 12 25.0
2014-Jul-29 20:52 188 6 gusting 12 25.0
2014-Jul-29 20:42 172 7 gusting 17 25.0
2014-Jul-29 20:32 183 8 gusting 14 25.0
2014-Jul-29 20:22 171 6 gusting 13 25.0
2014-Jul-29 20:12 202 10 gusting 14 25.6
2014-Jul-29 20:02 186 9 gusting 14 25.0
2014-Jul-29 19:52 190 8 gusting 19 25.0
2014-Jul-29 19:42 193 10 gusting 16 25.6
2014-Jul-29 19:32 187 7 gusting 18 25.0
2014-Jul-29 19:22 171 7 gusting 14 25.0
2014-Jul-29 19:12 119 3 gusting 10 22.8
2014-Jul-29 19:02 164 3 gusting 6 21.1
2014-Jul-29 18:52 068 0 gusting 4 20.0
2014-Jul-29 18:42 067 2 gusting 4 20.0
2014-Jul-29 18:32 067 3 gusting 5 19.4
2014-Jul-29 18:22 080 4 gusting 9 18.9
2014-Jul-29 18:12 082 6 gusting 9 20.0
2014-Jul-29 18:02 069 4 gusting 10 22.8
2014-Jul-29 17:52 314 7 gusting 13 22.8
2014-Jul-29 17:42 309 9 gusting 13 22.8
2014-Jul-29 17:32 232 3 gusting 17 25.6
2014-Jul-29 17:22 180 9 gusting 22 25.0
2014-Jul-29 17:12 169 11 gusting 19 25.0
2014-Jul-29 17:02 169 9 gusting 15 25.6
2014-Jul-29 16:52 196 9 gusting 15 24.4
2014-Jul-29 16:42 194 8 gusting 18 23.9
2014-Jul-29 16:32 182 12 gusting 19 24.4
2014-Jul-29 16:22 202 11 gusting 19 24.4
2014-Jul-29 16:12 169 11 gusting 18 24.4
2014-Jul-29 16:02 167 12 gusting 21 24.4
2014-Jul-29 15:52 182 10 gusting 16 24.4
2014-Jul-29 15:42 206 14 gusting 20 24.4
2014-Jul-29 15:32 184 8 gusting 18 23.9
2014-Jul-29 15:22 167 13 gusting 19 23.3
2014-Jul-29 15:12 176 6 gusting 15 23.9
2014-Jul-29 15:02 209 9 gusting 16 23.3
2014-Jul-29 14:52 204 11 gusting 13 22.8
2014-Jul-29 14:42 195 6 gusting 15 23.3
2014-Jul-29 14:32 175 8 gusting 18 22.8
2014-Jul-29 14:22 176 10 gusting 19 22.8
2014-Jul-29 14:12 167 10 gusting 18 22.8
2014-Jul-29 14:02 177 8 gusting 24 22.8
2014-Jul-29 13:52 180 8 gusting 22 22.8
2014-Jul-29 13:42 167 12 gusting 24 22.8
2014-Jul-29 13:32 195 17 gusting 21 22.2
2014-Jul-29 13:22 185 13 gusting 23 21.7
2014-Jul-29 13:12 176 6 gusting 21 21.1
2014-Jul-29 13:02 184 9 gusting 24 21.1
2014-Jul-29 12:52 143 13 gusting 18 21.1
2014-Jul-29 12:42 153 11 gusting 19 21.1
2014-Jul-29 12:32 196 12 gusting 19 21.1
2014-Jul-29 12:22 181 14 gusting 20 21.1
2014-Jul-29 12:12 155 11 gusting 19 20.6
2014-Jul-29 12:02 197 12 gusting 22 20.6
2014-Jul-29 11:52 195 7 gusting 13 20.0
2014-Jul-29 11:42 196 4 gusting 13 19.4
2014-Jul-29 11:32 166 6 gusting 13 18.9
2014-Jul-29 11:22 172 3 gusting 6 18.3
2014-Jul-29 11:12 219 2 gusting 5 17.8
2014-Jul-29 11:02 244 0 gusting 7 17.8
2014-Jul-29 10:52 202 1 gusting 6 17.8
2014-Jul-29 10:42 198 0 gusting 10 17.2
2014-Jul-29 10:32 215 6 gusting 11 17.2
2014-Jul-29 10:22 195 2 gusting 9 17.2
2014-Jul-29 10:12 229 6 gusting 10 17.2
2014-Jul-29 10:02 238 5 gusting 8 17.2
2014-Jul-29 09:52 238 1 gusting 5 17.2
2014-Jul-29 09:42 235 3 gusting 6 17.2
2014-Jul-29 09:32 260 1 gusting 3 16.7
2014-Jul-29 09:22 261 16.7
2014-Jul-29 09:12 261 1 gusting 4 16.7
2014-Jul-29 09:02 169 16.7
2014-Jul-29 08:52 169 0 gusting 4 16.7
2014-Jul-29 08:42 169 16.1
2014-Jul-29 08:32 138 15.6
2014-Jul-29 08:22 138 16.1
2014-Jul-29 08:12 167 3 gusting 6 16.1
2014-Jul-29 08:02 129 0 gusting 4 15.6
2014-Jul-29 07:52 355 15.0
2014-Jul-29 07:42 092 1 gusting 5 15.0
2014-Jul-29 07:32 094 4 gusting 6 15.6
2014-Jul-29 07:22 164 3 gusting 4 16.1
2014-Jul-29 07:12 164 1 gusting 4 16.1
2014-Jul-29 07:02 162 0 gusting 3 15.6
2014-Jul-29 06:52 161 15.6
2014-Jul-29 06:42 161 15.6
2014-Jul-29 06:32 161 16.1
2014-Jul-29 06:22 161 16.7
2014-Jul-29 06:12 161 17.2
2014-Jul-29 06:02 161 1 gusting 10 17.8
2014-Jul-29 05:52 152 6 gusting 16 18.3
2014-Jul-29 05:42 171 8 gusting 15 18.3
2014-Jul-29 05:32 178 10 gusting 15 17.8
2014-Jul-29 05:22 170 9 gusting 14 17.8
2014-Jul-29 05:12 161 7 gusting 14 17.8
2014-Jul-29 05:02 161 6 gusting 9 17.2
2014-Jul-29 04:52 185 4 gusting 7 16.7
2014-Jul-29 04:42 194 1 gusting 6 16.7
2014-Jul-29 04:32 232 0 gusting 4 16.7
2014-Jul-29 04:22 231 1 gusting 4 16.1
2014-Jul-29 04:12 229 1 gusting 4 16.1
2014-Jul-29 04:02 229 1 gusting 6 16.7
2014-Jul-29 03:52 223 2 gusting 4 16.7
2014-Jul-29 03:42 222 1 gusting 3 17.2
2014-Jul-29 03:32 222 2 gusting 4 16.7
2014-Jul-29 03:22 225 3 gusting 5 17.2
2014-Jul-29 03:12 224 1 gusting 6 17.2
2014-Jul-29 03:02 241 3 gusting 5 17.2
2014-Jul-29 02:52 238 4 gusting 9 17.8
2014-Jul-29 02:42 232 5 gusting 10 17.8
2014-Jul-29 02:32 226 4 gusting 6 17.8
2014-Jul-29 02:22 254 4 gusting 6 17.8
2014-Jul-29 02:12 217 2 gusting 10 18.3
2014-Jul-29 02:02 205 3 gusting 7 18.3
2014-Jul-29 01:52 230 2 gusting 6 18.3
2014-Jul-29 01:42 227 1 gusting 7 18.9
2014-Jul-29 01:32 236 6 gusting 9 18.9
2014-Jul-29 01:22 241 4 gusting 7 18.9
2014-Jul-29 01:12 252 5 gusting 8 18.3
2014-Jul-29 01:02 241 2 gusting 5 18.3
2014-Jul-29 00:52 238 2 gusting 7 18.3
2014-Jul-29 00:42 207 4 gusting 6 18.3
2014-Jul-29 00:32 168 5 gusting 12 19.4
2014-Jul-29 00:22 191 5 gusting 12 20.0
2014-Jul-29 00:12 179 6 gusting 11 19.4
2014-Jul-29 00:02 187 4 gusting 6 18.9
2014-Jul-28 23:52 202 3 gusting 5 19.4
2014-Jul-28 23:42 202 3 gusting 5 20.0
2014-Jul-28 23:32 198 4 gusting 7 20.6
2014-Jul-28 23:22 189 4 gusting 8 21.1
2014-Jul-28 23:12 185 5 gusting 12 21.7
2014-Jul-28 23:02 173 6 gusting 12 21.7
2014-Jul-28 22:52 188 5 gusting 9 21.1
2014-Jul-28 22:42 243 0 gusting 2 21.1
2014-Jul-28 22:32 242 21.7
2014-Jul-28 22:22 243 22.2
2014-Jul-28 22:12 242 22.8
2014-Jul-28 22:02 242 1 gusting 3 22.8
2014-Jul-28 21:52 080 23.3
2014-Jul-28 21:42 080 23.3
2014-Jul-28 21:32 080 23.3
2014-Jul-28 21:22 080 22.8
2014-Jul-28 21:12 080 22.8
2014-Jul-28 21:02 079 0 gusting 4 23.3
2014-Jul-28 20:52 128 0 gusting 8 23.9
2014-Jul-28 20:42 163 4 gusting 8 23.9
2014-Jul-28 20:32 160 6 gusting 10 23.3
2014-Jul-28 20:22 144 7 gusting 11 23.3
2014-Jul-28 20:12 156 7 gusting 13 23.3
2014-Jul-28 20:02 133 7 gusting 11 23.3
2014-Jul-28 19:52 150 5 gusting 11 23.9
2014-Jul-28 19:42 164 5 gusting 11 23.9
2014-Jul-28 19:32 130 6 gusting 11 23.9
2014-Jul-28 19:22 138 10 gusting 13 23.9
2014-Jul-28 19:12 154 10 gusting 13 23.9
2014-Jul-28 19:02 144 6 gusting 11 24.4
2014-Jul-28 18:52 163 3 gusting 11 23.9
2014-Jul-28 18:42 138 6 gusting 10 23.9
2014-Jul-28 18:32 145 7 gusting 9 23.3
2014-Jul-28 18:22 055 4 gusting 8 22.8
2014-Jul-28 18:12 061 4 gusting 7 22.2
2014-Jul-28 18:02 055 3 gusting 4 20.0
2014-Jul-28 17:52 100 2 gusting 4 18.9
2014-Jul-28 17:42 069 1 gusting 5 18.3
2014-Jul-28 17:32 048 3 gusting 5 18.9
2014-Jul-28 17:22 049 5 gusting 8 18.9
2014-Jul-28 17:12 063 5 gusting 7 18.9
2014-Jul-28 17:02 117 3 gusting 6 18.3
2014-Jul-28 16:52 069 4 gusting 6 17.8
2014-Jul-28 16:42 046 5 gusting 6 18.3
2014-Jul-28 16:32 040 4 gusting 5 17.2
2014-Jul-28 16:22 078 2 gusting 6 17.2
2014-Jul-28 16:12 070 4 gusting 6 17.2
2014-Jul-28 16:02 059 4 gusting 5 17.8
2014-Jul-28 15:52 051 4 gusting 5 17.2
2014-Jul-28 15:42 082 2 gusting 4 17.2
2014-Jul-28 15:32 082 2 gusting 3 16.1
2014-Jul-28 15:22 082 2 gusting 4 15.6
2014-Jul-28 15:12 082 3 gusting 4 15.0
2014-Jul-28 15:02 082 3 gusting 3 15.0
2014-Jul-28 14:52 082 2 gusting 3 15.0
2014-Jul-28 14:42 082 3 gusting 4 15.0
2014-Jul-28 14:32 082 3 gusting 5 15.0
2014-Jul-28 14:22 095 5 gusting 6 14.4
2014-Jul-28 14:12 082 2 gusting 6 15.0
2014-Jul-28 14:02 092 6 gusting 8 14.4
2014-Jul-28 13:52 099 7 gusting 8 15.0
2014-Jul-28 13:42 087 5 gusting 6 15.0
2014-Jul-28 13:32 080 5 gusting 6 15.0
2014-Jul-28 13:22 083 6 gusting 8 15.6
2014-Jul-28 13:12 088 6 gusting 8 16.1
2014-Jul-28 13:02 092 5 gusting 7 17.8